STARLINK-3267, 50197

Orbit data source: Space-Track

STARLINK-3267, 50197 is a payload satellite owned by SpaceX/Seattle (US) in LEO that was launched on Sat, 18 Dec 2021 UTC via an FALCON 9 launch vehicle from the Air Force Western Test Range (AFWTR). Payload-class satellites include a variety of spacecraft equipped with specific instruments for various scientific and technological missions. These include communications satellites like Starlink; space stations such as the ISS; scientific satellites like the Hubble; Earth observation satellites from companies like Planet Labs, Umbra, and HawkEye 360; GPS; miniature CubeSats for education and research; and military/defense satellites.

Loading next visibility...
Identifier
50197, 2021-125AT
Orbit
LEO
Country
Flag of USUS
Related business
Manufacturer
SpaceX/Seattle
Mission
Operational Commercial Communications
Bus & Motor
STARLINK, Unknown motor
Mass
290 kg wet, ~270 kg dry
Launch date (UTC)
2021-12-18 (5 years ago)
Launch vehicle
FALCON 9
Launch site
Air Force Western Test Range (AFWTR)
Object type
Payload
Rocket body
Debris
Shape & HBR
Box + 1 Pan, 10.1 m
Radar Cross Section
13.562 m², Large (>1 m²)

Expand to show TLE details & history
Last TLE update: 7 hours ago

TLE from 7 hours ago
0 STARLINK-3267
1 50197U 21125AT  26170.10615926  .00000291  00000-0  36406-4 0  9994
2 50197  53.1611 143.7380 0001419  74.3759 285.7389 15.08831550252093
Epoch: 2026-06-19T02:32Z
TLE epoch observation values (Epoch: 2026-06-19T02:32:52.160Z)
Latitude
Longitude
-161.81923°
Altitude
540.395 km
Speed
7.594 km/s
True Right ascension
09h 34m 57s
True Declination
0° 00' 00"
Sunlit
Object was in daylight at epoch
Visualization orbit readout
Latitude
Unknown
Longitude
Unknown
Altitude
Unknown
Speed
Unknown
Apparent Right ascension
Unknown
Apparent Declination
Unknown
Sunlit
N/A
Visualization observer readout
Local Sidereal Time
20:16:19
Azimuth
Unknown
Elevation
Unknown
Doppler factor
Unknown
Orbital elements
Apogee altitude
541.005 km
Perigee altitude
539.041 km
Semi-major axis
6,918.16 km
Eccentricity
0.00014
Inclination
53.1611°
RAAN
143.738°
Arg. of periapsis
74.3759°
True anomaly
285.72325°
Mean anomaly
285.7389°
Eccentric anomaly
285.73107°
Mean motion
3.77187 °/min
Orbital period
95.44 mins
BSTAR
0.000036406
Loading maneuver chart data...
Computing Atmospheric mass density...

Documentation

Showing up to 5 results
|